When you browse on this site, cookies collect data to enhance your experience and personalize the content and advertising you see.
Visit our Privacy Policy to learn more. By continuing to use the site, you agree to this use of cookies and data.
  • în România
  • Lista ţărilor
  • Pe 7 zile
  • Temperatura apei
  • Hartă satelitară
  • Meteo pe hartă
  • Widget-uri
  • user-avatar
    Intrare

    Meteo pe oră la Ozorków

    Astăzi, 20 Mai, Luni

    Timp Temperatura Precipitaţii Vânt Presiune Umiditate
    00:00 +16°C° 0 mm 3 m/s 743 mmHg 90%
    01:00 +16°C° 0 mm 3 m/s 743 mmHg 91%
    02:00 +14°C° 0 mm 3 m/s 743 mmHg 93%
    03:00 +14°C° 0 mm 3 m/s 743 mmHg 94%
    04:00 +14°C° 0 mm 3 m/s 742 mmHg 95%
    05:00 +15°C° 0 mm 4 m/s 742 mmHg 92%
    06:00 +18°C° 0 mm 4 m/s 742 mmHg 90%
    07:00 +19°C° 0 mm 4 m/s 742 mmHg 87%
    08:00 +20°C° 0 mm 5 m/s 742 mmHg 82%
    09:00 +22°C° 0 mm 5 m/s 742 mmHg 77%
    10:00 +23°C° 0 mm 6 m/s 742 mmHg 72%
    11:00 +24°C° 1.4 mm 6 m/s 742 mmHg 70%
    12:00 +24°C° 1.4 mm 6 m/s 741 mmHg 68%
    13:00 +26°C° 1.4 mm 6 m/s 741 mmHg 66%
    14:00 +25°C° 2 mm 5 m/s 741 mmHg 68%
    15:00 +25°C° 2 mm 4 m/s 741 mmHg 69%
    16:00 +25°C° 2 mm 3 m/s 741 mmHg 71%
    17:00 +24°C° 0.2 mm 3 m/s 741 mmHg 74%
    18:00 +23°C° 0.2 mm 2 m/s 741 mmHg 76%
    19:00 +21°C° 0.2 mm 2 m/s 741 mmHg 79%
    20:00 +20°C° 0.1 mm 2 m/s 741 mmHg 82%
    21:00 +19°C° 0.1 mm 2 m/s 741 mmHg 84%
    22:00 +18°C° 0.1 mm 2 m/s 741 mmHg 87%
    23:00 +17°C° 0.9 mm 2 m/s 741 mmHg 89%

    Mâine, 21 Mai, Marţi

    Timp Temperatura Precipitaţii Vânt Presiune Umiditate
    00:00 +17°C° 0.9 mm 2 m/s 741 mmHg 90%
    01:00 +16°C° 0.9 mm 2 m/s 741 mmHg 92%
    02:00 +16°C° 0.2 mm 2 m/s 741 mmHg 91%
    03:00 +15°C° 0.2 mm 2 m/s 741 mmHg 91%
    04:00 +15°C° 0.2 mm 1 m/s 741 mmHg 91%
    05:00 +16°C° 0.1 mm 1 m/s 741 mmHg 88%
    06:00 +18°C° 0.1 mm 1 m/s 741 mmHg 84%
    07:00 +19°C° 0.1 mm 1 m/s 741 mmHg 81%
    08:00 +18°C° 0.1 mm 1 m/s 741 mmHg 83%
    09:00 +18°C° 0.1 mm 1 m/s 741 mmHg 86%
    10:00 +17°C° 0.1 mm 2 m/s 741 mmHg 88%
    11:00 +18°C° 0.2 mm 2 m/s 741 mmHg 82%
    12:00 +20°C° 0.2 mm 3 m/s 741 mmHg 77%
    13:00 +21°C° 0.2 mm 3 m/s 741 mmHg 72%
    14:00 +21°C° 1.2 mm 3 m/s 740 mmHg 73%
    15:00 +21°C° 1.2 mm 3 m/s 740 mmHg 75%
    16:00 +20°C° 1.2 mm 3 m/s 740 mmHg 76%
    17:00 +19°C° 1.8 mm 3 m/s 740 mmHg 80%
    18:00 +19°C° 1.8 mm 2 m/s 739 mmHg 83%
    19:00 +18°C° 1.8 mm 2 m/s 739 mmHg 87%
    20:00 +17°C° 0.6 mm 2 m/s 739 mmHg 89%
    21:00 +16°C° 0.6 mm 2 m/s 739 mmHg 91%
    22:00 +15°C° 0.6 mm 1 m/s 739 mmHg 94%
    23:00 +15°C° 0.5 mm 2 m/s 739 mmHg 94%

    Poimâine, 22 Mai, Miercuri

    Timp Temperatura Precipitaţii Vânt Presiune Umiditate
    00:00 +15°C° 0.5 mm 2 m/s 739 mmHg 95%
    01:00 +15°C° 0.5 mm 2 m/s 739 mmHg 96%
    02:00 +15°C° 0 mm 2 m/s 739 mmHg 96%
    03:00 +15°C° 0 mm 2 m/s 739 mmHg 96%
    04:00 +15°C° 0 mm 2 m/s 739 mmHg 96%
    05:00 +15°C° 0 mm 2 m/s 739 mmHg 94%
    06:00 +16°C° 0 mm 2 m/s 740 mmHg 93%
    07:00 +17°C° 0 mm 2 m/s 740 mmHg 91%
    08:00 +17°C° 0.3 mm 3 m/s 740 mmHg 88%
    09:00 +18°C° 0.3 mm 3 m/s 740 mmHg 85%
    10:00 +19°C° 0.3 mm 3 m/s 741 mmHg 82%
    11:00 +19°C° 0.8 mm 3 m/s 741 mmHg 80%
    12:00 +20°C° 0.8 mm 3 m/s 741 mmHg 77%
    13:00 +21°C° 0.8 mm 4 m/s 741 mmHg 75%
    14:00 +21°C° 0.8 mm 4 m/s 741 mmHg 75%
    15:00 +21°C° 0.8 mm 3 m/s 741 mmHg 76%
    16:00 +20°C° 0.8 mm 3 m/s 741 mmHg 77%
    17:00 +20°C° 0.6 mm 3 m/s 741 mmHg 81%
    18:00 +19°C° 0.6 mm 3 m/s 741 mmHg 84%
    19:00 +18°C° 0.6 mm 2 m/s 741 mmHg 88%
    20:00 +17°C° 0 mm 2 m/s 741 mmHg 90%
    21:00 +16°C° 0 mm 2 m/s 742 mmHg 93%
    22:00 +15°C° 0 mm 2 m/s 742 mmHg 95%
    23:00 +15°C° 0.1 mm 2 m/s 742 mmHg 95%

    23 Mai, Joi

    Timp Temperatura Precipitaţii Vânt Presiune Umiditate
    00:00 +14°C° 0.1 mm 2 m/s 742 mmHg 96%
    01:00 +14°C° 0.1 mm 2 m/s 742 mmHg 97%
    02:00 +14°C° 0.3 mm 3 m/s 743 mmHg 96%
    03:00 +14°C° 0.3 mm 4 m/s 743 mmHg 96%
    04:00 +14°C° 0.3 mm 5 m/s 743 mmHg 96%
    05:00 +14°C° 0.6 mm 5 m/s 744 mmHg 95%
    06:00 +14°C° 0.6 mm 6 m/s 744 mmHg 95%
    07:00 +14°C° 0.6 mm 6 m/s 745 mmHg 94%
    08:00 +12°C° 0.3 mm 7 m/s 745 mmHg 94%
    09:00 +12°C° 0.3 mm 7 m/s 746 mmHg 93%
    10:00 +11°C° 0.3 mm 8 m/s 747 mmHg 92%
    11:00 +11°C° 0.1 mm 8 m/s 747 mmHg 92%
    12:00 +10°C° 0.1 mm 8 m/s 747 mmHg 91%
    13:00 +10°C° 0.1 mm 8 m/s 748 mmHg 91%
    14:00 +10°C° 0.1 mm 7 m/s 748 mmHg 89%
    15:00 +10°C° 0.1 mm 7 m/s 748 mmHg 87%
    16:00 +10°C° 0.1 mm 7 m/s 749 mmHg 85%
    17:00 +10°C° 0 mm 6 m/s 749 mmHg 83%
    18:00 +10°C° 0 mm 5 m/s 749 mmHg 82%
    19:00 +11°C° 0 mm 4 m/s 749 mmHg 81%
    20:00 +10°C° 0 mm 3 m/s 749 mmHg 84%
    21:00 +9°C° 0 mm 3 m/s 750 mmHg 87%
    22:00 +9°C° 0 mm 3 m/s 750 mmHg 91%
    23:00 +8°C° 0 mm 3 m/s 750 mmHg 92%

    24 Mai, Vineri

    Timp Temperatura Precipitaţii Vânt Presiune Umiditate
    00:00 +8°C° 0 mm 3 m/s 750 mmHg 93%
    01:00 +7°C° 0 mm 3 m/s 750 mmHg 94%
    02:00 +7°C° 0 mm 3 m/s 750 mmHg 94%
    03:00 +5°C° 0 mm 3 m/s 750 mmHg 94%
    04:00 +6°C° 0 mm 2 m/s 750 mmHg 95%
    05:00 +7°C° 0 mm 3 m/s 749 mmHg 90%
    06:00 +9°C° 0 mm 3 m/s 749 mmHg 86%
    07:00 +11°C° 0 mm 3 m/s 749 mmHg 82%
    08:00 +12°C° 0 mm 3 m/s 749 mmHg 76%
    09:00 +14°C° 0 mm 3 m/s 749 mmHg 70%
    10:00 +16°C° 0 mm 2 m/s 748 mmHg 63%
    11:00 +17°C° 0 mm 2 m/s 748 mmHg 60%
    12:00 +18°C° 0 mm 2 m/s 748 mmHg 57%
    13:00 +18°C° 0 mm 2 m/s 747 mmHg 54%
    14:00 +19°C° 0 mm 2 m/s 747 mmHg 53%
    15:00 +20°C° 0 mm 1 m/s 746 mmHg 52%
    16:00 +20°C° 0 mm 1 m/s 746 mmHg 52%
    17:00 +19°C° 0 mm 1 m/s 746 mmHg 57%
    18:00 +18°C° 0 mm 1 m/s 746 mmHg 61%
    19:00 +16°C° 0 mm 1 m/s 745 mmHg 66%
    20:00 +14°C° 0 mm 1 m/s 745 mmHg 69%
    21:00 +13°C° 0 mm 1 m/s 746 mmHg 72%
    22:00 +12°C° 0 mm 1 m/s 746 mmHg 74%
    23:00 +12°C° 0 mm 1 m/s 746 mmHg 77%

    25 Mai, Sâmbătă

    Timp Temperatura Precipitaţii Vânt Presiune Umiditate
    00:00 +11°C° 0 mm 1 m/s 746 mmHg 79%
    01:00 +11°C° 0 mm 1 m/s 746 mmHg 81%
    02:00 +11°C° 0 mm 1 m/s 746 mmHg 83%
    03:00 +10°C° 0 mm 1 m/s 746 mmHg 85%
    04:00 +9°C° 0 mm 2 m/s 746 mmHg 88%
    05:00 +12°C° 0 mm 2 m/s 746 mmHg 83%
    06:00 +14°C° 0 mm 2 m/s 746 mmHg 78%
    07:00 +15°C° 0 mm 1 m/s 746 mmHg 73%
    08:00 +18°C° 0 mm 1 m/s 746 mmHg 67%
    09:00 +19°C° 0 mm 1 m/s 746 mmHg 62%
    10:00 +21°C° 0 mm 1 m/s 746 mmHg 56%
    11:00 +21°C° 0 mm 1 m/s 746 mmHg 53%
    12:00 +22°C° 0 mm 1 m/s 746 mmHg 50%
    13:00 +21°C° 0 mm 0 m/s 746 mmHg 48%
    14:00 +23°C° 0 mm 1 m/s 745 mmHg 48%
    15:00 +23°C° 0 mm 1 m/s 745 mmHg 48%
    16:00 +23°C° 0 mm 1 m/s 745 mmHg 48%
    17:00 +21°C° 0 mm 1 m/s 745 mmHg 54%
    18:00 +20°C° 0 mm 1 m/s 745 mmHg 60%
    19:00 +18°C° 0 mm 2 m/s 745 mmHg 67%
    20:00 +17°C° 0 mm 2 m/s 746 mmHg 69%
    21:00 +16°C° 0 mm 2 m/s 746 mmHg 72%
    22:00 +15°C° 0 mm 2 m/s 746 mmHg 75%
    23:00 +14°C° 0 mm 2 m/s 746 mmHg 76%
    Arată mai mult